Preview of NWS' New Version of Forecast
This preview is not operational and should not be used for support decisions.

Regional Weather Roundup (RWR)

Issued by National Weather Service (NWS)

                            
000
ASUS45 KCYS 202310
RWRWY 

WYOMING REGIONAL WEATHER ROUNDUP
NATIONAL WEATHER SERVICE CHEYENNE WY
500 PM MDT TUE AUG 20 2019

NOTE:  "FAIR" INDICATES FEW OR NO CLOUDS BELOW 12,000 FEET
WITH NO SIGNIFICANT WEATHER AND/OR OBSTRUCTIONS TO VISIBILITY.

WYZ001-210000-
YELLOWSTONE NATIONAL PARK
  
CITY           SKY/WX    TMP DP  RH WIND       PRES   REMARKS
LK YELLOWSTONE   N/A     76  32  20 CALM      30.34F                  
W YELLOWSTONE  NOT AVBL                                               

$$
WYZ002>013-054>058-071-098>099-210000-
NORTHERN WYOMING
  
CITY           SKY/WX    TMP DP  RH WIND       PRES   REMARKS
JACKSON        FAIR      86  25  11 VRB5      30.19F                  
CODY           FAIR      80  49  33 NE15      30.15S                  
GREYBULL       FAIR      93  43  17 SE5       30.01F                  
WORLAND        FAIR      92  45  19 N5        30.02F                  
SHERIDAN       FAIR      89  48  24 E9        30.08F                  
BUFFALO        FAIR      86  51  29 NE7       30.16S                  
GILLETTE       FAIR      85  45  24 SE13G25   30.11F                  
HULETT         FAIR      77  55  47 E6        30.17F                  
NEWCASTLE      FAIR      82  45  26 E9G24     30.15S                  

$$
WYZ014>020-022>026-101>103-210000-
CENTRAL WYOMING
  
CITY           SKY/WX    TMP DP  RH WIND       PRES   REMARKS
BIG PINEY      FAIR      87  21   9 S14G23    30.23F                  
PINEDALE       FAIR      82  19   9 N5        30.26F                  
DUBOIS         FAIR      82  25  12 E5        30.25S                  
LANDER         FAIR      92  35  13 E7        30.10F                  
RIVERTON       FAIR      91  29  11 VRB5      30.11F                  
CASPER         FAIR      90  38  16 N10       30.11F                  
DOUGLAS        CLOUDY    80  53  39 E22G29    30.13R                  

$$
WYZ021-027>030-104>119-210000-
SOUTHERN WYOMING
  
CITY           SKY/WX    TMP DP  RH WIND       PRES   REMARKS
EVANSTON       FAIR      85  16   7 SW20G26   30.24F                  
KEMMERER       FAIR      86  18   8 W12G18    30.25F                  
ROCK SPRINGS   FAIR      88  25  10 VRB3G16   30.19F                  
DIXON          FAIR      88  22   9 S14G20    30.22F                  
RAWLINS        FAIR      89  25  10 SW12G23   30.22F                  
SARATOGA       FAIR      84  27  12 NW3       30.25F                  
LARAMIE        FAIR      82  38  20 E14       30.25F                  
CHEYENNE       FAIR      83  47  28 SE17G25   30.19R                  
TORRINGTON     FAIR      89  61  38 E25G33    30.05F                  
PINE BLUFFS    FAIR      82  54  36 E14G20    30.14R                  

$$
  
D       PRES   REMARKS
BIG PINEY      SUNNY     87  21   9 S14G23    30.23F                  
PINEDALE       SUNNY     82  19   9 N5        30.26F                  
DUBOIS         FAIR      82  25  12 E5        30.25S                  
LANDER         MOSUNNY   92  35  13 E7        30.10F                  
RIVERTON       MOSUNNY   91  29  11 VRB5      30.11F                  
CASPER         PTSUNNY   90  38  16 N10       30.11F                  
DOUGLAS        CLOUDY    80  53  39 E22G29    30.13R                  

$$
WYZ021-027>030-104>119-210000-
...SOUTHERN WYOMING...
  
CITY           SKY/WX    TMP DP  RH WIND       PRES   REMARKS
EVANSTON       SUNNY     85  16   7 SW20G26   30.24F                  
KEMMERER       SUNNY     86  18   8 W12G18    30.25F                  
FORT BRIDGER   NOT AVBL                                               
ROCK SPRINGS   SUNNY     88  25  10 VRB3G16   30.19F                  
DIXON          FAIR      88  22   9 S14G20    30.22F                  
RAWLINS        SUNNY     89  25  10 SW12G23   30.22F                  
SARATOGA       FAIR      84  27  12 NW3       30.25F                  
LARAMIE        MOSUNNY   82  38  20 E14       30.25F                  
CHEYENNE       PTSUNNY   83  47  28 SE17G25   30.19R                  
TORRINGTON     MOSUNNY   89  61  38 E25G33    30.05F                  
PINE BLUFFS    FAIR      82  54  36 E14G20    30.14R                  

$$